Location: Lane
(33.5226°N, 79.8788°W)
Time: 20:28:42
(UTC+00:00)

Explorer 11/Cluster Stage 4 - Pass Details

Date: 30 September 2022
Orbit: 466 x 1247 km, 28.8° (Epoch: 01 December)

Event Time Altitude Azimuth Distance (km) Brightness Sun altitude
Rises 16:06:43 0° 218° (SW) 4,165 10.5 50.6°
Reaches altitude 10° 16:10:20 10° 205° (SSW) 3,164 10.2 50.9°
Maximum altitude 16:16:23 24° 156° (SSE) 2,179 10.2 51.4°
Drops below altitude 10° 16:21:53 10° 106° (ESE) 2,863 9.9 51.8°
Sets 16:24:58 0° 93° (E) 3,690 10.2 52.0°
